Regional Weather Roundup
Issued by NWS

Home | Current Version | Previous Version | Text Only | Print | Product List | Glossary On
Versions: 1 2 3 4 5 6 7 8 9 10 11 12 13 14 15 16 17 18 19 20 21 22 23 24 25 26 27 28 29 30 31 32 33 34 35 36 37 38 39 40 41 42 43 44 45 46 47 48 49 50
926
ASUS43 KDTX 071801
RWRMI
MICHIGAN HOURLY REGIONAL WEATHER ROUNDUP
NATIONAL WEATHER SERVICE DETROIT/PONTIAC MI
100 PM EST WED DEC 07 2016

NOTE: "FAIR" INDICATES FEW OR NO CLOUDS BELOW 12,000 FEET WITH NO
SIGNIFICANT WEATHER AND/OR OBSTRUCTION TO VISIBILITY.

MIZ047>049-052>055-059>063-066>070-074>076-081>083-071900-
SOUTHEAST LOWER MICHIGAN

CITY           SKY/WX    TMP DP  RH WIND       PRES   REMARKS
ADRIAN         SUNNY     33  25  72 SW13G24   30.05S WCI  24
6HR MIN TEMP:  27; 6HR MAX TEMP:  33;

ALMA           MOSUNNY   35  22  58 SW15G26   29.95S WCI  25
ANN ARBOR      SUNNY     36  25  64 SW14      30.01F WCI  27
BAD AXE        CLOUDY    34  24  66 SW13G21   29.91S WCI  25
CARO           MOSUNNY   36  25  64 SW18G24   29.92F WCI  25
DETROIT CITY   SUNNY     36  26  67 SW14G21   30.01S WCI  27
6HR MIN TEMP:  32; 6HR MAX TEMP:  36;

DETROIT        PTSUNNY   36  24  62 SW15      30.03S WCI  27
6HR MIN TEMP:  31; 6HR MAX TEMP:  37;

FLINT          SUNNY     37  24  59 W16G23    29.96F WCI  28
6HR MIN TEMP:  32; 6HR MAX TEMP:  38;

GROSSE ILE     PTSUNNY   36  26  67 W8G20     30.02S WCI  29
6HR MIN TEMP:  30; 6HR MAX TEMP:  36;

HILLSDALE      PTSUNNY   34  23  64 SW15G22   30.01S WCI  24
HOWELL         MOSUNNY   36  24  60 W16G24    29.97F WCI  26

CITY           SKY/WX    TMP DP  RH WIND       PRES   REMARKS
JACKSON        MOSUNNY   36  24  62 SW17      30.00F WCI  26
6HR MIN TEMP:  29; 6HR MAX TEMP:  36;

LAMBERTVILLE   MOSUNNY   35  24  63 W14G20    30.06F WCI  26
6HR MIN TEMP:  29; 6HR MAX TEMP:  35;

LANSING        MOSUNNY   37  22  54 W16G25    29.98F WCI  28
6HR MIN TEMP:  31; 6HR MAX TEMP:  38;

LAPEER         NOT AVBL
MASON          PTSUNNY   37  25  63 W9G22     29.98F WCI  30
MONROE         PTSUNNY   34  27  74 SW17      30.04S WCI  23
6HR MIN TEMP:  29; 6HR MAX TEMP:  35;

MT. CLEMENS    MOSUNNY   38  25  58 SW10G21   29.96F WCI  32
6HR MIN TEMP:  32; 6HR MAX TEMP:  38;

PONTIAC        MOSUNNY   37  24  59 SW9G17    29.96F WCI  30
6HR MIN TEMP:  31; 6HR MAX TEMP:  37;

PORT HOPE        N/A     34  23  64 SW16G32   29.88S WCI  24
6HR MIN TEMP:  31; 6HR MAX TEMP:  34;

PORT HURON     MOSUNNY   36  25  64 SW9       29.97S WCI  29
TRI CITIES     PTSUNNY   34  23  64 W21G28    29.94S WCI  22
6HR MIN TEMP:  32; 6HR MAX TEMP:  35;

MIDLAND        PTSUNNY   37  21  53 SW14G21   29.92F WCI  28
6HR MIN TEMP:  32; 6HR MAX TEMP:  37;

TROY           MOSUNNY   38  24  57 S10       30.00F WCI  30
SAGINAW HB     MOSUNNY   36  23  60 SW18G30   29.93F WCI  25
$$
MIZ043>046-050>051-056>058-064>065-071>073-077>080-071900-
SOUTHWEST LOWER MICHIGAN

CITY           SKY/WX    TMP DP  RH WIND       PRES   REMARKS
BATTLE CREEK   MOSUNNY   36  24  62 SW18      30.01S WCI  26
6HR MIN TEMP:  30; 6HR MAX TEMP:  38;

BENTON HARBOR  PTSUNNY   35  23  61 W17       30.06F WCI  25
6HR MIN TEMP:  32; 6HR MAX TEMP:  36;

BIG RAPIDS     CLOUDY    32  20  61 W18G24    29.92S WCI  20
6HR MIN TEMP:  30; 6HR MAX TEMP:  32;

COLDWATER      CLOUDY    34  24  66 W12       30.03S WCI  26
6HR MIN TEMP:  27; 6HR MAX TEMP:  36;

FREMONT        CLOUDY    31  18  58 W13G21    29.96F WCI  22
HOLLAND        PTSUNNY   34  25  69 W21       30.01F WCI  22
6HR MIN TEMP:  32; 6HR MAX TEMP:  34;

GRAND RAPIDS   PTSUNNY   34  23  64 W18       29.99F WCI  23
6HR MIN TEMP:  31; 6HR MAX TEMP:  34;

IONIA          PTSUNNY   33  24  68 SW21G26   29.96F WCI  22
6HR MIN TEMP:  31; 6HR MAX TEMP:  34;

KALAMAZOO      MOSUNNY   35  23  61 W16G22    30.03S WCI  25
6HR MIN TEMP:  30; 6HR MAX TEMP:  36;

LUDINGTON      CLOUDY    29  22  76 W12G21    29.94F WCI  19
6HR MIN TEMP:  28; 6HR MAX TEMP:  29;

MARSHALL       PTSUNNY   37  24  59 SW16G22   30.00S WCI  27
6HR MIN TEMP:  29; 6HR MAX TEMP:  37;

MOUNT PLEASANT MOSUNNY   33  21  61 W15G21    29.93S WCI  23
6HR MIN TEMP:  31; 6HR MAX TEMP:  34;

MUSKEGON       CLOUDY    32  23  69 W17       29.99F WCI  21
6HR MIN TEMP:  31; 6HR MAX TEMP:  33;

SOUTH HAVEN    PTSUNNY   33  25  71 W16G23    30.04F WCI  22
$$
MIZ016>042-071900-
NORTHERN LOWER MICHIGAN

CITY           SKY/WX    TMP DP  RH WIND       PRES   REMARKS
ALPENA         PTSUNNY   33  17  51 W17G28    29.81F WCI  22
6HR MIN TEMP:  31; 6HR MAX TEMP:  33;

BEAVER ISLAND  CLOUDY    29  22  76 SW20G33   29.78S WCI  16
6HR MIN TEMP:  28; 6HR MAX TEMP:  30;

BELLAIRE       CLOUDY    31  21  67 SW14G23   29.85S WCI  20
6HR MIN TEMP:  30; 6HR MAX TEMP:  31;

CADILLAC       CLOUDY    29  19  65 SW15G23   29.85F WCI  18
CHARLEVOIX     CLOUDY    31  22  70 SW17G30   29.84S WCI  19
6HR MIN TEMP:  30; 6HR MAX TEMP:  32;

FRANKFORT      CLOUDY    29  22  76 W10G22    29.90S WCI  19
GAYLORD        CLOUDY    28  17  63 SW24G37   29.79F WCI  14
6HR MIN TEMP:  28; 6HR MAX TEMP:  29;

GRAYLING       CLOUDY    30  20  66 W14G30    29.84S WCI  19
HARBOR SPRINGS CLOUDY    31  24  73 SW21G31   29.79S WCI  19
HOUGHTON LAKE  PTSUNNY   30  19  63 W20G29    29.86F WCI  17
6HR MIN TEMP:  28; 6HR MAX TEMP:  31;

MANISTEE       CLOUDY    28  22  78 W16       29.91F WCI  16
OSCODA         PTSUNNY   36  19  49 MISG      29.85S
6HR MIN TEMP:  31; 6HR MAX TEMP:  37;

PELLSTON       MIX PCPN  31  18  58 SW14G29   29.78S WCI  21
6HR MIN TEMP:  30; 6HR MAX TEMP:  32; 6HR PCP:  0.04;

ROGERS CITY    CLOUDY    32  19  59 SW16G31   29.79F WCI  21
TRAVERSE CITY  PTSUNNY   30  19  63 SW13G24   29.86F WCI  20
6HR MIN TEMP:  30; 6HR MAX TEMP:  31; 6HR PCP: TRACE;

$$
MIZ007>008-015-071900-
EASTERN UPPER MICHIGAN

CITY           SKY/WX    TMP DP  RH WIND       PRES   REMARKS
MACKINAC ISLAN CLOUDY    31  21  68 SW25G41   29.74F WCI  17
NEWBERRY       CLOUDY    24  14  66 SW16      29.74S WCI  11
6HR MIN TEMP:  23; 6HR MAX TEMP:  26; 6HR PCP:  0.05;

MUNISING         N/A     26  14  60 VRB7      29.75F WCI  18
6HR MIN TEMP:  25; 6HR MAX TEMP:  26;

$$
MIZ004>006-011>014-085-071900-
CENTRAL UPPER MICHIGAN

CITY           SKY/WX    TMP DP  RH WIND       PRES   REMARKS
MANISTIQUE     CLOUDY    27  14  58 SW13G21   29.77F WCI  16
6HR MIN TEMP:  24; 6HR MAX TEMP:  27; 6HR PCP:  0.03;

$$
MIZ001>003-009>011-084-071900-
WESTERN UPPER MICHIGAN

CITY           SKY/WX    TMP DP  RH WIND       PRES   REMARKS
COPPER HARBOR    N/A     26  20  77 W14G22    29.63F WCI  14
6HR MIN TEMP:  23; 6HR MAX TEMP:  26; 6HR PCP:  0.03;

$$

ABBREVIATIONS USED IN REMARKS
   TC - TEMPERATURE IN CELSIUS
  WCI - WIND CHILL INDEX
   HX - HEAT INDEX
  VSB - VISIBILITY





USA.gov is the U.S. government's official web portal to all federal, state and local government web resources and services.